TimeEDT,TemperatureF,Dew PointF,Humidity,Sea Level PressureIn,VisibilityMPH,Wind Direction,Wind SpeedMPH,Gust SpeedMPH,PrecipitationIn,Events,Conditions,WindDirDegrees,DateUTC
12:15 AM,29.1,19.6,68,30.22,10.0,North,10.4,-,N/A,,Overcast,350,2013-03-14 04:15:00
12:35 AM,29.3,18.5,64,30.21,10.0,NNW,8.1,-,N/A,,Overcast,340,2013-03-14 04:35:00
12:55 AM,29.3,16.5,59,30.21,10.0,NW,12.7,18.4,N/A,,Overcast,320,2013-03-14 04:55:00
1:15 AM,29.3,16.5,59,30.21,10.0,NNW,13.8,24.2,N/A,,Overcast,330,2013-03-14 05:15:00
1:35 AM,29.3,16.3,58,30.21,10.0,NW,6.9,-,N/A,,Overcast,320,2013-03-14 05:35:00
1:55 AM,29.3,16.5,59,30.22,10.0,NNW,13.8,18.4,N/A,,Overcast,330,2013-03-14 05:55:00
2:15 AM,29.1,16.9,60,30.21,10.0,NW,9.2,-,N/A,,Overcast,310,2013-03-14 06:15:00
2:35 AM,29.3,16.5,59,30.22,10.0,NW,5.8,-,N/A,,Overcast,310,2013-03-14 06:35:00
2:55 AM,28.9,18.1,64,30.22,10.0,NW,10.4,-,N/A,Snow,Light Snow,320,2013-03-14 06:55:00
3:15 AM,28.8,18.9,67,30.22,10.0,NNW,5.8,-,N/A,Snow,Light Snow,330,2013-03-14 07:15:00
3:35 AM,28.0,21.2,76,30.22,4.0,North,5.8,16.1,N/A,Snow,Light Snow,350,2013-03-14 07:35:00
3:55 AM,27.5,23.0,83,30.23,3.0,NNW,6.9,-,N/A,Snow,Light Snow,340,2013-03-14 07:55:00
4:15 AM,27.5,20.1,74,30.23,10.0,NW,9.2,18.4,N/A,,Overcast,320,2013-03-14 08:15:00
4:35 AM,27.3,18.0,68,30.22,10.0,NW,8.1,19.6,N/A,,Overcast,320,2013-03-14 08:35:00
4:55 AM,27.1,17.6,67,30.22,10.0,NNW,6.9,19.6,N/A,,Overcast,340,2013-03-14 08:55:00
5:15 AM,27.1,17.6,67,30.22,10.0,NNW,6.9,19.6,N/A,,Overcast,330,2013-03-14 09:15:00
5:35 AM,27.1,17.4,67,30.23,10.0,North,5.8,24.2,N/A,Snow,Light Snow,350,2013-03-14 09:35:00
5:55 AM,26.8,17.6,68,30.23,10.0,NW,3.5,-,N/A,,Overcast,320,2013-03-14 09:55:00
6:15 AM,26.6,17.4,68,30.24,10.0,NNW,4.6,-,N/A,,Overcast,330,2013-03-14 10:15:00
6:35 AM,26.6,16.3,65,30.25,10.0,NW,8.1,-,N/A,,Overcast,320,2013-03-14 10:35:00
6:55 AM,26.6,15.6,63,30.26,10.0,NNW,12.7,19.6,N/A,,Overcast,340,2013-03-14 10:55:00
7:15 AM,26.4,15.8,64,30.27,10.0,NW,6.9,-,N/A,,Overcast,310,2013-03-14 11:15:00
7:35 AM,26.4,16.3,66,30.28,10.0,NNW,6.9,-,N/A,,Overcast,330,2013-03-14 11:35:00
7:55 AM,26.6,16.5,66,30.28,10.0,NNW,8.1,16.1,N/A,,Overcast,330,2013-03-14 11:55:00
8:15 AM,26.4,16.9,67,30.28,10.0,NW,11.5,-,N/A,,Overcast,320,2013-03-14 12:15:00
8:35 AM,26.2,16.2,66,30.28,10.0,NW,10.4,17.3,N/A,,Overcast,320,2013-03-14 12:35:00
8:55 AM,26.1,16.7,68,30.28,10.0,NNW,8.1,-,N/A,,Mostly Cloudy,340,2013-03-14 12:55:00
9:15 AM,27.5,16.9,64,30.29,10.0,North,9.2,-,N/A,,Mostly Cloudy,350,2013-03-14 13:15:00
9:55 AM,28.2,17.4,64,30.29,10.0,NW,4.6,-,N/A,,Scattered Clouds,320,2013-03-14 13:55:00
10:15 AM,28.6,17.2,63,30.30,10.0,NW,8.1,-,N/A,,Scattered Clouds,310,2013-03-14 14:15:00
10:35 AM,29.8,16.3,57,30.29,10.0,NW,8.1,-,N/A,,Clear,320,2013-03-14 14:35:00
10:55 AM,30.4,15.4,54,30.28,10.0,NNW,4.6,-,N/A,,Clear,330,2013-03-14 14:55:00
11:15 AM,31.6,17.8,57,30.27,10.0,NW,4.6,-,N/A,,Clear,320,2013-03-14 15:15:00
11:35 AM,32.4,16.5,52,30.27,10.0,NNW,5.8,-,N/A,,Clear,330,2013-03-14 15:35:00
11:55 AM,32.7,16.5,51,30.26,10.0,WNW,6.9,-,N/A,,Clear,300,2013-03-14 15:55:00
12:15 PM,33.8,15.6,47,30.26,10.0,North,13.8,18.4,N/A,,Clear,350,2013-03-14 16:15:00
12:35 PM,36.0,17.1,46,30.26,10.0,NNW,8.1,-,N/A,,Clear,330,2013-03-14 16:35:00
12:55 PM,36.1,14.9,42,30.26,10.0,NNW,11.5,-,N/A,,Clear,330,2013-03-14 16:55:00
1:15 PM,36.9,14.9,41,30.25,10.0,WNW,4.6,-,N/A,,Clear,290,2013-03-14 17:15:00
1:35 PM,37.8,16.0,41,30.25,10.0,WNW,10.4,-,N/A,,Clear,300,2013-03-14 17:35:00
1:55 PM,39.2,17.2,41,30.24,10.0,WNW,6.9,-,N/A,,Clear,290,2013-03-14 17:55:00
2:15 PM,39.7,17.1,40,30.24,10.0,West,9.2,-,N/A,,Clear,270,2013-03-14 18:15:00
2:35 PM,40.5,17.1,39,30.23,10.0,NW,10.4,-,N/A,,Clear,310,2013-03-14 18:35:00
2:55 PM,41.2,16.9,38,30.22,10.0,West,11.5,17.3,N/A,,Clear,280,2013-03-14 18:55:00
3:15 PM,42.3,17.4,37,30.21,10.0,West,10.4,18.4,N/A,,Clear,280,2013-03-14 19:15:00
3:35 PM,42.4,18.1,38,30.20,10.0,WNW,6.9,-,N/A,,Clear,300,2013-03-14 19:35:00
3:55 PM,43.2,18.0,36,30.20,10.0,West,10.4,-,N/A,,Clear,280,2013-03-14 19:55:00
4:15 PM,43.5,18.3,36,30.19,10.0,WNW,6.9,-,N/A,,Clear,290,2013-03-14 20:15:00
4:35 PM,43.2,18.0,36,30.19,10.0,West,10.4,-,N/A,,Clear,280,2013-03-14 20:35:00
4:55 PM,43.5,18.7,37,30.18,10.0,West,11.5,-,N/A,,Clear,270,2013-03-14 20:55:00
5:15 PM,44.1,19.2,37,30.18,10.0,WNW,6.9,-,N/A,,Clear,300,2013-03-14 21:15:00
5:35 PM,43.7,19.2,38,30.17,10.0,West,12.7,16.1,N/A,,Clear,280,2013-03-14 21:35:00
5:55 PM,43.0,19.6,39,30.17,10.0,West,12.7,-,N/A,,Clear,260,2013-03-14 21:55:00
6:15 PM,42.3,19.4,40,30.17,10.0,West,8.1,-,N/A,,Clear,270,2013-03-14 22:15:00
6:35 PM,42.8,19.0,39,30.16,10.0,West,9.2,-,N/A,,Clear,270,2013-03-14 22:35:00
6:55 PM,42.4,19.2,39,30.16,10.0,West,10.4,16.1,N/A,,Clear,270,2013-03-14 22:55:00
7:15 PM,41.4,19.2,41,30.17,10.0,West,6.9,-,N/A,,Clear,280,2013-03-14 23:15:00
7:35 PM,40.3,19.2,43,30.17,10.0,West,6.9,-,N/A,,Clear,280,2013-03-14 23:35:00
7:55 PM,39.0,21.2,49,30.17,10.0,West,8.1,-,N/A,,Clear,260,2013-03-14 23:55:00
8:15 PM,37.8,21.6,52,30.17,10.0,West,5.8,-,N/A,,Clear,270,2013-03-15 00:15:00
8:35 PM,37.4,21.2,52,30.17,10.0,West,4.6,-,N/A,,Clear,270,2013-03-15 00:35:00
8:55 PM,36.7,21.2,54,30.17,10.0,West,3.5,-,N/A,,Clear,280,2013-03-15 00:55:00
9:15 PM,35.8,21.9,57,30.18,10.0,Calm,Calm,-,N/A,,Clear,0,2013-03-15 01:15:00
9:35 PM,35.2,21.7,58,30.18,10.0,West,4.6,-,N/A,,Clear,270,2013-03-15 01:35:00
9:55 PM,34.9,21.7,59,30.18,10.0,Calm,Calm,-,N/A,,Clear,0,2013-03-15 01:55:00
10:15 PM,34.9,21.7,59,30.18,10.0,West,3.5,-,N/A,,Clear,280,2013-03-15 02:15:00
10:35 PM,34.3,21.7,60,30.18,10.0,West,3.5,-,N/A,,Clear,260,2013-03-15 02:35:00
10:55 PM,33.4,22.1,63,30.18,10.0,West,3.5,-,N/A,,Clear,280,2013-03-15 02:55:00
11:15 PM,33.3,21.9,63,30.18,10.0,WNW,4.6,-,N/A,,Clear,290,2013-03-15 03:15:00
11:35 PM,33.8,21.6,61,30.18,10.0,WNW,4.6,-,N/A,,Clear,300,2013-03-15 03:35:00
11:55 PM,32.5,22.3,66,30.18,10.0,West,3.5,-,N/A,,Clear,260,2013-03-15 03:55:00